(43877) = 1995 BP11 = 1996 KG5

Discovered at Kitt Peak on 1995-01-29 by Spacewatch.

Orbit

Orbit type: Main Belt

Note: WebGL enabled browser required.

epoch2023-09-13.0
epoch JD2460200.5
perihelion date2023-07-17.79784
perihelion JD2460143.29784
argument of perihelion (°)174.33463
ascending node (°)120.25539
inclination (°)2.75377
eccentricity0.1373455
perihelion distance (AU)2.6206300
Tisserand w.r.t. Jupiter3.2
ΔV w.r.t. Earth (km/sec)10.2
semimajor axis (AU)3.0378673
mean anomaly (°)10.64788
mean daily motion (°/day)0.18614470
aphelion distance (AU)3.455
period (years)5.29
P-vector [x]0.41622096
P-vector [y]-0.83610819
P-vector [z]-0.35732788
Q-vector [x]0.90831596
Q-vector [y]0.40027112
Q-vector [z]0.12142960
absolute magnitude15.15
phase slope0.15
uncertainty0
referenceMPEC 2024-A48
observations used794
oppositions24
arc length (days)23047
first opposition used1960
last opposition used2023
residual rms (arc-secs)0.73
perturbers coarse indicatorM-v
perturbers precise indicator003Ek
first observation date used1960-09-24.0
last observation date used2023-10-31.0
computer nameMPCLINUX
JD of orbit computation2456639.757436
perihelion JD uncertainty (days)1.0066E-04
argument of perihelion uncertainty (°)1.1293E-04
ascending node uncertainty (°)1.1135E-04
inclination uncertainty (°)3.8656E-06
eccentricity uncertainty 3.2240E-08
perihelion distance uncertainty (AU)9.6978E-08
Minimum Orbit Intersection Distances (in AU)
for orbit epoch: 2460200.5, reference: E2024-A48
Mercury2.17286
Venus1.89348
Earth1.604
Mars1.19469
Jupiter1.72363
Saturn5.62126
Uranus15.1057
Neptune26.6233

Observations

806 total observations over interval: 1960 09 24.32430 – 2023 10 31.220911
These data are available for download (format description).

Date (UT) J2000 RA J2000 Dec Magn Location Ref
1960 09 24.32430 23 50 16.85 -04 56 46.8 20.3   675 – Palomar Mountain MPS 284993
1960 09 24.35000 23 50 15.66 -04 56 55.8 19.2   675 – Palomar Mountain MPS 284993
1960 10 22.14375 23 34 13.06 -06 35 08.8 19.8   675 – Palomar Mountain MPS 284993
1960 10 22.16667 23 34 12.56 -06 35 09.7 19.8   675 – Palomar Mountain MPS 284993
1960 10 26.25070 23 33 01.18 -06 40 12.0 20.0   675 – Palomar Mountain MPS 284993
1960 10 26.27153 23 33 00.87 -06 40 13.6 20.6   675 – Palomar Mountain MPS 284993
1992 09 29.41426 01 15 39.71 +03 39 23.8 19.0 V 691 – Steward Observatory, Kitt Peak-Spacewatch MPS 79353
1992 09 29.43909 01 15 38.58 +03 39 16.0 19.2 V 691 – Steward Observatory, Kitt Peak-Spacewatch MPS 79353
1992 09 29.46446 01 15 37.45 +03 39 08.3 19.3 V 691 – Steward Observatory, Kitt Peak-Spacewatch MPS 79353
1995 01 29.47598 10 31 09.62 +11 10 38.1 20.2 V 691 – Steward Observatory, Kitt Peak-Spacewatch MPC 24836
1995 01 29.49777 10 31 08.81 +11 10 44.3   691 – Steward Observatory, Kitt Peak-Spacewatch MPC 24836
1995 01 29.51937 10 31 08.05 +11 10 49.6   691 – Steward Observatory, Kitt Peak-Spacewatch MPC 24836
1995 02 01.40408 10 29 23.74 +11 23 25.5   691 – Steward Observatory, Kitt Peak-Spacewatch MPC 24836
1995 02 01.42598 10 29 22.86 +11 23 31.4 19.9 V 691 – Steward Observatory, Kitt Peak-Spacewatch MPC 24836
1995 02 01.45771 10 29 21.69 +11 23 40.3   691 – Steward Observatory, Kitt Peak-Spacewatch MPC 24836
1995 02 07.44376 10 25 23.00 +11 51 30.6   691 – Steward Observatory, Kitt Peak-Spacewatch MPC 24836
1995 02 07.46627 10 25 22.05 +11 51 36.3   691 – Steward Observatory, Kitt Peak-Spacewatch MPC 24836
1995 02 07.48829 10 25 21.11 +11 51 42.4 19.7 V 691 – Steward Observatory, Kitt Peak-Spacewatch MPC 24836
1996 05 18.28425 15 09 55.84 -13 34 03.9 19.0 V 691 – Steward Observatory, Kitt Peak-Spacewatch MPS 81189
1996 05 18.30582 15 09 54.75 -13 34 00.2 19.0 V 691 – Steward Observatory, Kitt Peak-Spacewatch MPS 81189
1996 05 18.32727 15 09 53.67 -13 33 56.6 19.1 V 691 – Steward Observatory, Kitt Peak-Spacewatch MPS 81189
1996 05 20.24414 15 08 21.26 -13 28 46.9 19.2 V 691 – Steward Observatory, Kitt Peak-Spacewatch MPS 81189
1996 05 20.26554 15 08 20.19 -13 28 43.5 18.8 V 691 – Steward Observatory, Kitt Peak-Spacewatch MPS 81189
1996 05 20.28709 15 08 19.12 -13 28 40.1 18.9 V 691 – Steward Observatory, Kitt Peak-Spacewatch MPS 81189
1996 05 22.16944 15 06 49.96 -13 23 43.4 18.8   809 – European Southern Observatory, La Silla MPC 27425
1996 05 22.18264 15 06 49.27 -13 23 41.7   809 – European Southern Observatory, La Silla MPC 27425
1996 05 22.19583 15 06 48.75 -13 23 39.6   809 – European Southern Observatory, La Silla MPC 27425
1996 05 24.16042 15 05 17.65 -13 18 50.9   809 – European Southern Observatory, La Silla MPC 27425
1996 05 24.17361 15 05 17.06 -13 18 49.7   809 – European Southern Observatory, La Silla MPC 27425
1996 05 24.18681 15 05 16.46 -13 18 47.2   809 – European Southern Observatory, La Silla MPC 27425
2000 01 12.43228 09 20 22.81 +16 12 47.3 19.9 V 691 – Steward Observatory, Kitt Peak-Spacewatch MPS 16360
2000 01 12.45369 09 20 21.96 +16 12 51.7 20.1 V 691 – Steward Observatory, Kitt Peak-Spacewatch MPS 16360
2000 01 12.47610 09 20 21.09 +16 12 56.4 19.7 V 691 – Steward Observatory, Kitt Peak-Spacewatch MPS 16360
2000 02 03.26521 09 04 01.19 +17 39 40.5 19.3   704 – Lincoln Laboratory ETS, New Mexico MPS 16360
2000 02 03.27984 09 04 00.43 +17 39 44.6 19.7   704 – Lincoln Laboratory ETS, New Mexico MPS 16360
2000 02 03.29450 09 03 59.78 +17 39 47.2 19.6   704 – Lincoln Laboratory ETS, New Mexico MPS 16360
2001 04 16.27376 13 32 39.51 -05 14 22.6 18.9 R 699 – Lowell Observatory-LONEOS MPS 29406
2001 04 16.31230 13 32 37.69 -05 14 12.7   699 – Lowell Observatory-LONEOS MPS 29406
2001 04 16.35035 13 32 35.84 -05 14 01.1   699 – Lowell Observatory-LONEOS MPS 29406
2001 04 16.38839 13 32 34.06 -05 13 50.4   699 – Lowell Observatory-LONEOS MPS 29406
2001 05 24.222670 13 10 01.138 -03 19 57.65 19.92 V 645 – Apache Point-Sloan Digital Sky Survey MPS 81189
2001 05 24.226142 13 10 01.075 -03 19 57.57 20.62   645 – Apache Point-Sloan Digital Sky Survey MPS 81189
2002 07 14.45768 21 31 16.36 -15 23 50.5 19.0   644 – Palomar Mountain/NEAT MPS 58650
2002 07 14.46803 21 31 16.02 -15 23 52.6 19.0   644 – Palomar Mountain/NEAT MPS 58650
2002 07 14.47847 21 31 15.70 -15 23 55.0 19.2   644 – Palomar Mountain/NEAT MPS 58650
2002 07 22.28384 21 26 51.78 -15 55 21.6 18.7   644 – Palomar Mountain/NEAT MPS 59526
2002 07 22.35905 21 26 48.80 -15 55 41.4 18.5   644 – Palomar Mountain/NEAT MPS 59526
2002 07 22.42600 21 26 46.12 -15 55 58.8 18.5   644 – Palomar Mountain/NEAT MPS 59526
2002 07 23.29819 21 26 12.72 -15 59 46.6 19.0   644 – Palomar Mountain/NEAT MPS 59526
2002 07 23.32516 21 26 11.62 -15 59 53.9 19.0   644 – Palomar Mountain/NEAT MPS 59526
2002 07 23.36604 21 26 09.97 -16 00 04.4 19.0   644 – Palomar Mountain/NEAT MPS 59526
2002 08 08.21440 21 14 29.40 -17 13 48.8 17.9 R 699 – Lowell Observatory-LONEOS MPS 59526
2002 08 08.22845 21 14 28.77 -17 13 52.6   699 – Lowell Observatory-LONEOS MPS 59526
2002 08 08.24247 21 14 28.06 -17 13 56.8   699 – Lowell Observatory-LONEOS MPS 59526
2002 08 08.25653 21 14 27.35 -17 14 00.6   699 – Lowell Observatory-LONEOS MPS 59526
2002 08 08.34131 21 14 23.28 -17 14 24.3 18.4   644 – Palomar Mountain/NEAT MPS 59526
2002 08 08.36229 21 14 22.26 -17 14 30.0 17.7   644 – Palomar Mountain/NEAT MPS 59526
2002 08 08.38261 21 14 21.25 -17 14 35.7 17.8   644 – Palomar Mountain/NEAT MPS 59526
2002 08 14.24592 21 09 47.38 -17 41 24.4 18.9   704 – Lincoln Laboratory ETS, New Mexico MPS 59526
2002 08 14.26165 21 09 46.66 -17 41 29.4 19.3   704 – Lincoln Laboratory ETS, New Mexico MPS 59526
2002 08 14.29295 21 09 45.13 -17 41 36.7 19.0   704 – Lincoln Laboratory ETS, New Mexico MPS 59526
2002 08 15.21135 21 09 03.05 -17 45 40.3 18.1 R 699 – Lowell Observatory-LONEOS MPS 59526
2002 08 15.22894 21 09 02.19 -17 45 44.9   699 – Lowell Observatory-LONEOS MPS 59526
2002 08 15.24653 21 09 01.37 -17 45 49.2   699 – Lowell Observatory-LONEOS MPS 59526
2002 08 15.26414 21 09 00.52 -17 45 53.3   699 – Lowell Observatory-LONEOS MPS 59526
2002 08 18.28368 21 06 44.79 -17 58 49.1 18.6   644 – Palomar Mountain/NEAT MPS 62374
2002 08 18.28484 21 06 44.75 -17 58 48.9 18.6   644 – Palomar Mountain/NEAT MPS 62374
2002 08 18.30727 21 06 43.69 -17 58 54.9 18.7   644 – Palomar Mountain/NEAT MPS 62374
2002 08 18.30850 21 06 43.66 -17 58 55.1 18.9   644 – Palomar Mountain/NEAT MPS 62374
2002 08 18.33897 21 06 42.22 -17 59 02.9 18.7   644 – Palomar Mountain/NEAT MPS 62374
2002 08 18.34011 21 06 42.21 -17 59 02.8 18.7   644 – Palomar Mountain/NEAT MPS 62374
2002 08 29.27166 20 59 26.79 -18 39 28.9 18.9   644 – Palomar Mountain/NEAT MPS 62374
2002 08 29.29186 20 59 26.02 -18 39 33.0 19.0   644 – Palomar Mountain/NEAT MPS 62374
2002 08 29.31278 20 59 25.28 -18 39 36.8 19.0   644 – Palomar Mountain/NEAT MPS 62374
2002 08 31.20405 20 58 22.04 -18 45 25.5 19.1   704 – Lincoln Laboratory ETS, New Mexico MPS 62374
2002 08 31.21915 20 58 21.55 -18 45 27.9 19.1   704 – Lincoln Laboratory ETS, New Mexico MPS 62374
2002 08 31.23300 20 58 21.09 -18 45 30.5 19.9   704 – Lincoln Laboratory ETS, New Mexico MPS 62374
2002 09 02.43395 20 57 12.68 -18 51 44.7 20.0   608 – Haleakala-AMOS MPS 62374
2002 09 02.44469 20 57 12.31 -18 51 46.2 20.2   608 – Haleakala-AMOS MPS 62374
2002 09 02.45552 20 57 12.02 -18 51 47.5 19.8   608 – Haleakala-AMOS MPS 62374
2002 09 05.20197 20 55 55.77 -18 58 50.2 19.3   704 – Lincoln Laboratory ETS, New Mexico MPS 62374
2002 09 05.21618 20 55 55.40 -18 58 52.7 19.7   704 – Lincoln Laboratory ETS, New Mexico MPS 62374
2002 09 05.23043 20 55 54.94 -18 58 54.2 19.2   704 – Lincoln Laboratory ETS, New Mexico MPS 62374
2002 09 05.25870 20 55 54.16 -18 58 59.0 19.3   704 – Lincoln Laboratory ETS, New Mexico MPS 62374
2003 10 20.45158 03 43 21.63 +15 57 59.1 20.4 V 691 – Steward Observatory, Kitt Peak-Spacewatch MPS 89001
2003 10 20.47996 03 43 20.55 +15 57 54.7 20.2 V 691 – Steward Observatory, Kitt Peak-Spacewatch MPS 89001
2003 10 20.50789 03 43 19.52 +15 57 50.7 20.2 V 691 – Steward Observatory, Kitt Peak-Spacewatch MPS 89001
